Location: ????? ????
(37.9717°N, 23.4051°E)
Time: 10:23:59
(UTC+00:00)

COSMOS 2455 - Pass Details

Date: 18 April 2024
Orbit: 898 x 911 km, 67.1° (Epoch: 19 May)

Event Time Altitude Azimuth Distance (km) Brightness Sun altitude
Rises 20:20:44 0° 329° (NNW) 3,546 7.0 -32.8°
Reaches altitude 10° 20:23:16 10° 326° (NNW) 2,601 6.1 -33.1°
Enters shadow 20:27:59 52° 297° (WNW) 1,122 3.5 -33.6°
